[Iaude] MPEC V173: 2023 VQ5 [a=0.74,e=0.35,i=5.7,H=27.5]

mpec at marsden.cfa.harvard.edu mpec at marsden.cfa.harvard.edu
Fri Nov 10 10:14:05 EST 2023


M.P.E.C. 2023-V173                            Issued 2023 November 10, 15:12 UT

     The Minor Planet Electronic Circulars contain information on unusual
         minor planets, routine data on comets and natural satellites,
         and occasional editorial announcements.  They are published
    on behalf of Division F of the International Astronomical Union by the
          Minor Planet Center, Smithsonian Astrophysical Observatory,
                          Cambridge, MA 02138, U.S.A.
			  
             Prepared using the Tamkin Foundation Computer Network

                              MPC at CFA.HARVARD.EDU
            URL https://www.minorplanetcenter.net/    ISSN 1523-6714

                                    2023 VQ5                                    


Observations:
     K23V05Q*HC2023 11 09.42418206 45 16.690+35 24 40.40               VEV173V00
     K23V05Q HC2023 11 09.42968806 44 53.950+35 23 47.70               VEV173V00
     K23V05Q HC2023 11 09.43519206 44 31.250+35 22 53.90               VEV173V00
     K23V05Q HC2023 11 09.44069206 44 08.640+35 22 00.20         21.32GVEV173V00
     K23V05Q KC2023 11 09.48858806 40 48.493+35 13 26.33         19.56GVEV173I52
     K23V05Q KC2023 11 09.49152906 40 36.138+35 12 52.67         19.42GVEV173I52
     K23V05Q KC2023 11 09.49452606 40 23.545+35 12 18.47         19.67GVEV173I52
     K23V05Q KC2023 11 09.49752106 40 10.956+35 11 43.69         18.89GVEV173I52
     K23V05Q KB2023 11 09.91564 06 11 49.01 +33 30 48.0          18.9 GXEV173M45
     K23V05Q KB2023 11 09.91916 06 11 32.59 +33 29 52.6          19.2 GXEV173M45
     K23V05Q KB2023 11 09.92268 06 11 16.01 +33 28 57.3          19.1 GXEV173M45
     K23V05Q 1C2023 11 09.96165 06 08 16.63 +33 16 32.6          19.7 VXEV173033
     K23V05Q 1C2023 11 09.96194 06 08 15.23 +33 16 27.6          19.6 VXEV173033
     K23V05Q 1C2023 11 09.96224 06 08 13.84 +33 16 22.6          19.3 VXEV173033
     K23V05Q KB2023 11 10.30589 05 40 41.62 +31 18 12.4          19.1 GVEV173734
     K23V05Q KB2023 11 10.31220 05 40 07.99 +31 15 40.7          18.8 GVEV173734
     K23V05Q KB2023 11 10.31852 05 39 34.22 +31 13 07.2          18.5 GVEV173734
     K23V05Q mC2023 11 10.32871305 38 54.542+31 09 59.47         18.81GVEV173I52
     K23V05Q mC2023 11 10.32884005 38 53.851+31 09 56.30         18.73GVEV173I52
     K23V05Q mC2023 11 10.32896505 38 53.182+31 09 53.10         18.56GVEV173I52
     K23V05Q mC2023 11 10.32910505 38 52.429+31 09 49.82         18.69GVEV173I52

Observer details:
033 Karl Schwarzschild Observatory, Tautenburg.  Observers S. Melnikov, C.
    Hogner, F. Ludwig, M. Hartmann, B. Stecklum.  Measurer B. Stecklum.
    1.34-m f/3 Schmidt + CCD.
734 Farpoint Observatory, Eskridge.  Observer .
I52 Steward Observatory, Mt. Lemmon Station.  Observer H. Groeller.  Measurers
    E. C. Beshore, D. Fay, J. B. Fazekas, D. C. Fuls, A. R. Gibbs, A. D.
    Grauer, H. Groeller, J. K. Hogan, R. A. Kowalski, S. M. Larson, G. J.
    Leonard, D. Rankin, R. L. Seaman, F. C. Shelly, K. W. Wierzchos.  1.0-m
    prime focus + CCD.
M45 Starhopper Observatory, Sfantu Gheorghe.  Observer F. Ursache.  0.41-m
    f/7.5 reflector + CMO.
V00 Kitt Peak-Bok.  Observer K. W. Wierzchos.  Measurers M. J. Brucker, C. E.
    Woodward, D. Fay, J. B. Fazekas, D. C. Fuls, A. R. Gibbs, H. Groeller, J.
    K. Hogan, R. A. Kowalski, S. M. Larson, C. Lejoly, G. J. Leonard, R. A.
    Mastaler, R. S. McMillan, D. Rankin, R. L. Seaman, A. Serrano, F. C.
    Shelly, K. W. Wierzchos.  2.25-m reflector + 4x4K mosaic CCD.

Orbital elements:
2023 VQ5                                                 Earth MOID = 0.0073 AU
Epoch 2023 Sept. 13.0 TT = JDT 2460200.5                Veres                   
M  82.41165              (2000.0)            P               Q                  
n   1.55399807     Peri.    2.73596     -0.62638544     +0.77601650             
a   0.7381915      Node   228.49287     -0.71704663     -0.61071647             
e   0.3538719      Incl.    5.65204     -0.30575384     -0.15755568             
P   0.63           H   27.55          G   0.15           U   7                  
Residuals in seconds of arc
231109 V00  1.3+  0.1-    231109 I52  0.0   0.2-    231110 734 (1.6-  0.7-)
231109 V00  0.5-  0.2-    231109 M45  0.5-  0.4-    231110 734 (1.6-  0.7-)
231109 V00  1.2-  0.5-    231109 M45  0.1+  0.6-    231110 734 (1.8-  0.7-)
231109 V00  0.3-  0.0     231109 M45  0.9-  0.4-    231110 I52  0.1+  0.2+
231109 I52  0.2+  0.5+    231109 033  0.5+  0.1-    231110 I52  0.0   0.1+
231109 I52  0.1+  0.1+    231109 033  0.2+  0.3-    231110 I52  0.0   0.1-
231109 I52  0.0   0.1+    231109 033  0.6+  0.3-    231110 I52  0.0   0.0

Ephemeris:
2023 VQ5                 a,e,i = 0.74, 0.35, 6                   q = 0.4770
Date    TT    R. A. (2000) Decl.     Delta      r    Elong.  Phase     V
2023 10 11    10 18 39.7 +32 03 30   0.1184  0.9359    55.1   119.0    27.5
...
2023 10 26    09 54 03.7 +34 06 23   0.06426 0.9789    74.3   102.1    25.3
...
2023 11 03    09 19 54.0 +35 46 36   0.03455 0.9921    88.9    89.1    23.4
...
2023 11 09    07 09 48.0 +36 18 54   0.01348 0.9977   120.6    58.8    20.3
2023 11 10    06 04 55.8 +33 10 33   0.01085 0.9982   135.1    44.5    19.4
2023 11 11    04 38 56.2 +25 04 12   0.0091600.9987   156.1    23.6    18.5
...
2023 11 17    00 00 08.8 -21 35 25   0.02287 0.9989   115.3    63.5    21.6
...
2023 11 25    23 10 43.9 -27 39 48   0.05263 0.9933    95.1    81.9    24.0
...
2023 12 10    22 50 11.5 -29 42 32   0.1066  0.9645    75.9    97.9    26.1

M. P. C. Staff               (C) Copyright 2023 MPC           M.P.E.C. 2023-V173




More information about the Iaude mailing list